Miscellaneous Local Product
Issued by NWS Hastings, NE

Home | Current Version | Previous Version | Graphics & Text | Print | Product List | Glossary On
Versions: 1 2 3 4 5 6 7 8 9 10 11 12 13 14 15 16 17 18 19 20 21 22 23 24 25 26 27 28 29 30 31 32 33 34 35 36 37 38 39 40 41 42 43 44 45 46 47 48 49 50
743
AXUS43 KGID 190302
MISGRI

GID CWA HOURLY WEATHER ROUNDUP
NATIONAL WEATHER SERVICE HASTINGS NE
900 PM CST THU JAN 18 2018

NOTE: "FAIR" INDICATES FEW OR NO CLOUDS BELOW 12,000 FEET WITH NO
SIGNIFICANT WEATHER AND/OR OBSTRUCTIONS TO VISIBILITY.

...SOUTH CENTRAL NEBRASKA...

CITY           SKY/WX    TMP DP  RH WIND       PRES   REMARKS
GRAND ISLAND   CLOUDY    35  29  78 SW9       29.88F WCI  28
KEARNEY        CLOUDY    37  26  64 SW9       29.89F WCI  30
HASTINGS       CLOUDY    38  25  59 SW3       29.88F
ORD            CLOUDY    29  26  89 CALM      29.85S
YORK           CLOUDY    32  28  86 SW10      29.89S WCI  24
AURORA         CLOUDY    32  28  83 SW7       29.88F WCI  26
LEXINGTON      CLOUDY    32  27  83 N5        29.89F WCI  27
HOLDREGE       CLOUDY    38  27  63 SW6       29.89F WCI  34
HEBRON         CLOUDY    38  26  62 SW9       29.91F WCI  32

...NEBRASKA PANHANDLE...

CITY           SKY/WX    TMP DP  RH WIND       PRES   REMARKS
CHADRON        CLOUDY    33  29  85 SW8       29.81S WCI  26
ALLIANCE       CLOUDY    34  29  82 W9        29.84F WCI  27
SCOTTSBLUFF    CLOUDY    41  31  67 NW6       29.87F
SIDNEY         CLOUDY    39  19  44 SW9       29.91F WCI  33

...WESTERN AND NORTH CENTRAL NEBRASKA...

CITY           SKY/WX    TMP DP  RH WIND       PRES   REMARKS
VALENTINE      CLOUDY    38  29  70 SW6       29.78F WCI  33
AINSWORTH      CLOUDY    39  32  75 SW9       29.80F WCI  33
ONEILL         CLOUDY    33  30  87 SW6       29.81F WCI  28
BROKEN BOW     CLOUDY    37  28  70 CALM      29.86F
IMPERIAL       PTCLDY    42  24  49 SW7       29.89F
NORTH PLATTE   PTCLDY    30  26  85 CALM      29.88F
MCCOOK         CLOUDY    35  25  66 W7        29.89F WCI  29

...EASTERN NEBRASKA...

CITY           SKY/WX    TMP DP  RH WIND       PRES   REMARKS
NORFOLK        CLOUDY    32  28  85 S7        29.82F WCI  26
SO SIOUX CITY  CLOUDY    26  24  92 SE8       29.85F WCI  18
TEKAMAH        CLOUDY    28  22  78 SE10      29.89F WCI  19
COLUMBUS       CLOUDY    33  28  81 SW5       29.87F WCI  29
ALBION         CLOUDY    33  28  84 CALM      29.85F
OMAHA EPPLEY   CLOUDY    25  20  81 SE9       29.93F WCI  15
OFFUTT AFB     CLOUDY    25  19  78 SE3       29.92F
MILLARD        CLOUDY    29  23  77 SE5       29.93S WCI  24
LINCOLN        CLOUDY    31  23  72 S3        29.92F
NEBRASKA CITY  CLOUDY    29  24  80 S8        29.94F WCI  22
BEATRICE       CLOUDY    34  25  70 S8        29.93S WCI  27
FALLS CITY     CLOUDY    36  24  62 S12       29.96F WCI  28

...NORTHERN KANSAS...

CITY           SKY/WX    TMP DP  RH WIND       PRES   REMARKS
GOODLAND       CLOUDY    45  13  27 SW14      29.93F
HILL CITY      CLOUDY    45  14  28 SW13      29.92F
NORTON         CLEAR     34  19  55 SW7       29.89F WCI  28
PHILLIPSBURG   CLEAR     41  18  38 CALM      29.91S
SMITH CENTER     N/A     36  18  48 S5        29.92F WCI  32
BELOIT         CLEAR     39  19  45 CALM      29.94S
HAYS           CLOUDY    39  18  42 SW12      29.96F WCI  32
RUSSELL        CLOUDY    40  22  48 S14       29.94F WCI  32
CONCORDIA      CLOUDY    39  23  52 S17       29.93F WCI  30
SALINA         CLOUDY    41  27  57 S17       29.99F
TOPEKA         CLOUDY    41  25  53 S9        30.03F



USA.gov is the U.S. government's official web portal to all federal, state and local government web resources and services.